{"data":{"norad_id":65340,"intl_designator":"2025-189T","name":"STARLINK-35020","alt_names":[],"object_type":"PAYLOAD","status":"ACTIVE","operator":null,"country":"US","launch_date":"2025-08-27","launch_site_code":"AFETR","launch_vehicle":null,"mission":null,"orbit_class":"UNKNOWN","rcs_meters":null,"size_class":null,"mass_kg":null,"dimensions":null,"purposes":["comms"],"wikipedia_slug":null,"has_3d_model":false,"image_url":null,"decayed_at":null,"tle_current":{"epoch":"2026-05-25T03:59:38.004576Z","epoch_age_seconds":50847,"freshness":"FRESH","line1":"1 65340U 25189T   26145.16641209  .00016871  00000+0  55393-3 0  9990","line2":"2 65340  53.1588 210.9538 0000992  77.7862 282.3250 15.31714967 42771","mean_motion":15.31714967,"eccentricity":9.92e-5,"inclination_deg":53.1588,"raan_deg":210.9538,"arg_perigee_deg":77.7862,"mean_anomaly_deg":282.325,"bstar":0.00055393,"rev_number":4277,"period_min":94.012269320601,"perigee_km":470.0159755687,"apogee_km":471.37478391284,"semimajor_km":6848.8323797408,"source":"CELESTRAK","updated_at":"2026-05-25T13:38:20.761895Z"}}}